This is the latest recevied weather packets stored in our database for station/object N0QWM. If no packets are shown the sender has not sent any weather packets the latest 10 day(s).
| Time | Temp. | Humidity | Pressure | Rain* | Wind** | Luminosity | Snow |
|---|---|---|---|---|---|---|---|
| 1787857569 | 27.78° C | 82% | 1020.6 hPa | 0 mm | - | 102 W/m² | - |
| 1787857263 | 27.78° C | 83% | 1020.4 hPa | 0 mm | - | 92 W/m² | - |
| 1787856962 | 27.78° C | 82% | 1020.6 hPa | 0 mm | - | 113 W/m² | - |
| 1787856657 | 28.33° C | 82% | 1020.4 hPa | 0 mm | - | 120 W/m² | - |
| 1787856351 | 28.33° C | 82% | 1020.6 hPa | 0 mm | - | 131 W/m² | - |
| 1787856047 | 28.89° C | 81% | 1020.5 hPa | 0 mm | - | 120 W/m² | - |
| 1787855746 | 28.89° C | 81% | 1020.5 hPa | 0 mm | - | 107 W/m² | - |
| 1787855442 | 28.89° C | 79% | 1020.5 hPa | 0 mm | - | 122 W/m² | - |
| 1787855137 | 28.89° C | 78% | 1020.5 hPa | 0 mm | - | 146 W/m² | - |
| 1787854833 | 29.44° C | 78% | 1020.7 hPa | 0 mm | - | 223 W/m² | - |
| 1787854532 | 28.89° C | 78% | 1020.5 hPa | 0 mm | - | 295 W/m² | - |
| 1787854227 | 28.89° C | 79% | 1020.8 hPa | 0 mm | - | 265 W/m² | - |
| 1787853926 | 28.89° C | 80% | 1020.7 hPa | 0 mm | - | 275 W/m² | - |
| 1787853621 | 28.33° C | 81% | 1020.6 hPa | 0 mm | - | 309 W/m² | - |
| 1787853320 | 28.89° C | 80% | 1020.6 hPa | 0 mm | - | 289 W/m² | - |
| 1787853015 | 28.89° C | 79% | 1020.6 hPa | 0 mm | - | 356 W/m² | - |
| 1787852714 | 28.33° C | 79% | 1020.8 hPa | 0 mm | - | 350 W/m² | - |
| 1787852409 | 28.89° C | 79% | 1020.5 hPa | 0 mm | - | 276 W/m² | - |
| 1787852115 | 28.33° C | 80% | 1020.9 hPa | 0 mm | - | 298 W/m² | - |
| 1787851803 | 27.78° C | 82% | 1020.6 hPa | 0 mm | - | 347 W/m² | - |
| 1787851497 | 27.78° C | 81% | 1020.8 hPa | 0 mm | - | 396 W/m² | - |
| 1787851191 | 28.33° C | 83% | 1020.7 hPa | 0 mm | - | 500 W/m² | - |
| 1787850887 | 28.33° C | 81% | 1020.7 hPa | 0 mm | - | 372 W/m² | - |
| 1787850584 | 28.33° C | 81% | 1020.9 hPa | 0 mm | - | 288 W/m² | - |
| 1787850284 | 27.78° C | 83% | 1020.8 hPa | 0 mm | - | 678 W/m² | - |
* Rain latest hour (hover to see other rain measurements)
** Current wind speed in m/s (hover to see current wind gust speed)